Regional Weather Roundup
Issued by NWS

Home | Current Version | Previous Version | Graphics & Text | Print | Product List | Glossary On
Versions: 1 2 3 4 5 6 7 8 9 10 11 12 13 14 15 16 17 18 19 20 21 22 23 24 25 26 27 28 29 30 31 32 33 34 35 36 37 38 39 40 41 42 43 44 45 46 47 48 49 50
898
ASUS43 KLOT 062008
RWRIL

ILLINOIS REGIONAL WEATHER ROUNDUP
NATIONAL WEATHER SERVICE CHICAGO/ROMEOVILLE IL
200 PM CST SAT FEB 06 2016

NOTE: "FAIR" INDICATES FEW OR NO CLOUDS BELOW 12,000 FEET WITH NO
SIGNIFICANT WEATHER AND/OR OBSTRUCTIONS TO VISIBILITY.

* THESE STATIONS ARE NOT UNDER NWS QUALITY CONTROL. THEY ALSO MAY NOT
  REPORT WEATHER SUCH AS PRECIPITATION OR FOG.

ILZ001-002-007-009-015-016-024-062100-
NORTHWEST ILLINOIS

CITY           SKY/WX    TMP DP  RH WIND       PRES   REMARKS
MOLINE         SUNNY     43  27  53 SW9       30.15F
STERLING*      SUNNY     43  28  56 W10       30.14F
SAVANNA*       SUNNY     39  28  65 SW10G16   30.16F WCI  32
$$

ILZ003-004-008-010-011-017-018-062100-
NORTH CENTRAL ILLINOIS

CITY           SKY/WX    TMP DP  RH WIND       PRES   REMARKS
ROCKFORD       MOSUNNY   40  26  57 SW9       30.17F
FREEPORT*      SUNNY     37  26  66 W9        30.16F WCI  30
ROCHELLE*      SUNNY     40  30  67 SW15      30.16F
DE KALB*       SUNNY     40  29  64 SW16      30.16F
PERU*          SUNNY     43  28  54 SW14      30.18F
$$

ILZ005-006-012>014-019>023-062100-
NORTHEAST ILLINOIS

CITY           SKY/WX    TMP DP  RH WIND       PRES   REMARKS
CHICAGO-OHARE  MOSUNNY   39  28  64 W13       30.16F WCI  31
CHICAGO-MIDWAY MOSUNNY   41  27  57 SW15      30.18F
AURORA         MOSUNNY   41  29  62 SW13      30.17F
LANSING*       PTSUNNY   40  29  64 SW13G18   30.19F
JOLIET*        MOSUNNY   42  30  62 SW8       30.19F
WAUKEGAN       PTSUNNY   37  28  70 W10       30.14F WCI  30
DUPAGE AIRPORT MOSUNNY   40  28  62 SW13      30.16F
KANKAKEE*      SUNNY     41  30  63 SW10      30.20F
WHEELING       MOSUNNY   38  27  64 W14G21    30.17F WCI  30
MORRIS*        MOSUNNY   41  31  67 SW12      30.16S
ROMEOVILLE*    MOSUNNY   40  29  65 SW14      30.18F
$$

LMZ740>746-062100-
SOUTHERN LAKE MICHIGAN

STATION/POSITION SKY/WX   TEMP    WIND        PRES    VSBY  WAVE
                          AIR SEA DIR/SP/G                  HT/PER
                          (F)     (DEG/KT/KT) (MB)    (MI)  (FT/S)
HARRISON CRIB              37     230/ 13/ 16   N/A
BURNHAM HARBOR             40     180/  8/ 12   N/A
CALUMET HARBOR             39     220/  8/ 12 1021.5F
BURNS HARBOR               38     230/ 13/ 18 1023.0F
MICHIGAN CITY              36     200/ 14/ 16   N/A
$$

ILZ025>027-034>036-040-047-049-050-058-095>099-062100-
WEST-CENTRAL ILLINOIS

CITY           SKY/WX    TMP DP  RH WIND       PRES   REMARKS
QUINCY         SUNNY     48  26  42 SW10      30.19F
GALESBURG*     SUNNY     46  30  54 SW12G17   30.17F
MACOMB*        SUNNY     47  29  50 SW12      30.21F
JACKSONVILLE*  SUNNY     51  32  49 SW8       30.19F
PITTSFIELD*    SUNNY     50  29  44 SW13      30.20F
$$

ILZ028>032-037-038-041>044-048-051>054-059>061-062100-
CENTRAL ILLINOIS

CITY           SKY/WX    TMP DP  RH WIND       PRES   REMARKS
PONTIAC        SUNNY     44  32  61 SW10G16   30.20F
BLOOMINGTON    SUNNY     46  30  54 SW15      30.19F
DECATUR        SUNNY     48  28  46 S14       30.21F
PEORIA         SUNNY     46  26  45 SW16G22   30.19F
LACON*         SUNNY     44  25  46 SW10      30.17F
LINCOLN*       SUNNY     47  32  55 S5        30.20F
SPRINGFIELD    SUNNY     50  30  46 S12       30.20F
TAYLORVILLE    SUNNY     46  32  57 S10       30.21F
$$

ILZ033-039-045-046-055>057-062-063-062100-
EAST-CENTRAL ILLINOIS

CITY           SKY/WX    TMP DP  RH WIND       PRES   REMARKS
CHAMPAIGN      SUNNY     46  30  53 SW13      30.21F
RANTOUL*       SUNNY     46  33  61 S9        30.21F
MATTOON        SUNNY     47  28  47 S8        30.22F
PARIS*         SUNNY     46  31  56 SW10      30.24F
$$

ILZ079-100>102-062100-
SOUTHWEST ILLINOIS

CITY           SKY/WX    TMP DP  RH WIND       PRES   REMARKS
BELLEVILLE     SUNNY     55  28  34 SW8       30.22F
CAHOKIA*       SUNNY     55  28  35 VRB3      30.22F
SPARTA*        SUNNY     55  24  30 SW12      30.25F
$$

ILZ064>066-069>071-074>076-080>082-084>086-088>090-092>094-062100-
SOUTH-CENTRAL ILLINOIS

CITY           SKY/WX    TMP DP  RH WIND       PRES   REMARKS
CARBONDALE     SUNNY     55  17  22 W9        30.26F
CAIRO*         SUNNY     53  31  42 SW8       30.29F
EFFINGHAM*     SUNNY     51  29  42 S9        30.25F
MARION         SUNNY     55  19  24 W12       30.26F
MT. VERNON     SUNNY     54  27  35 SW8       30.26F
CENTRALIA*     SUNNY     54  29  39 SW9       30.24F
SALEM*         SUNNY     54  23  29 SW8       30.24F
METROPOLIS*    SUNNY     55  26  33 SW8       30.29F
$$

ILZ067-068-072-073-078-083-087-091-062100-
SOUTHEAST ILLINOIS

CITY           SKY/WX    TMP DP  RH WIND       PRES   REMARKS
LAWRENCEVILLE  SUNNY     49  27  42 SW6       30.26F
FLORA*         SUNNY     53  29  38 S8        30.25F
FAIRFIELD*     SUNNY     51  30  45 S5        30.25F
HARRISBURG*    SUNNY     54  25  32 SW3       30.27F
ROBINSON*      SUNNY     48  28  45 S7        30.27F
CARMI*         SUNNY     53  28  37 SW3       30.26F
$$

ABBREVIATIONS USED IN REMARKS
   TC - TEMPERATURE IN CELSIUS
  WCI - WIND CHILL INDEX
   HX - HEAT INDEX
  VSB - VISIBILITY
$$





USA.gov is the U.S. government's official web portal to all federal, state and local government web resources and services.